Location: Les Gen�tes
(46.3104°N, 1.5969°E)
Time: 10:29:27
(UTC+00:00)

Meteor 1-16 Rocket - Pass Details

Date: 01 June 2020
Orbit: 790 x 908 km, 81.2° (Epoch: 04 July)

Event Time Altitude Azimuth Distance (km) Brightness Sun altitude
Rises 23:08:12 0° 348° (NNW) 3,401 8.9 -20.8°
Reaches altitude 10° 23:10:39 10° 347° (NNW) 2,445 7.8 -20.8°
Maximum altitude 23:16:11 81° 261° (W) 827 4.1 -21.0°
Enters shadow 23:17:55 45° 181° (S) 1,095 4.3 -21.0°
